Weather History for Ft Lauderdale, FL

Change the Weather History Date:

Saturday, January 19, 2013

  Actual Average Record
Temperature  
Mean Temperature 67 °F 69 °F  
Max Temperature 72 °F 76 °F 87 °F (1936)
Min Temperature 62 °F 62 °F 28 °F (1977)
Degree Days  
Heating Degree Days 0 1  
Month to date heating degree days 2 35  
Since 1 July heating degree days 67  
Cooling Degree Days 2 5  
Month to date cooling degree days 174 104  
Year to date cooling degree days 174 104  
Growing Degree Days 17 (Base 50)    
Moisture  
Dew Point 64 °F    
Average Humidity 79    
Maximum Humidity 100    
Minimum Humidity 57    
Precipitation  
Precipitation 0.34 in 0.12 in 2.90 in (1942)
Month to date precipitation 0.96 1.61  
Year to date precipitation 0.96 1.61  
Snow  
Snow 0.00 in - - ()
Month to date snowfall 0.0  
Since 1 July snowfall 0.0  
Snow Depth 0.00 in    
Sea Level Pressure  
Sea Level Pressure 30.15 in    
Wind  
Wind Speed 7 mph (North)    
Max Wind Speed 13 mph    
Max Gust Speed 16 mph    
Visibility 8 miles    
Events Rain    
T = Trace of Precipitation, MM = Missing Value Source: NWS Daily Summary

Daily Weather History Graph

Daily Weather History Graph

Search for Another Location

Airport:

Trip Planner

Search our weather history database for the weather conditions in past years. The results will help you decide how hot, cold, wet, or windy it might be!

Date:

Astronomy

Jan. 19, 2013 Rise Set
Actual Time 7:08 AM EST 5:54 PM EST
Civil Twilight 6:44 AM EST 6:18 PM EST
Nautical Twilight 6:16 AM EST 6:46 PM EST
Astronomical Twilight 5:48 AM EST 7:14 PM EST
Moon 12:13 PM EST (1/19) 12:50 AM EST (1/19)
Length of Visible Light 11h 34m
Length of Day
10h 45m
First Quarter, 57% of the Moon is Illuminated
Jan 19
First Quarter
Jan 26
Full
Feb 3
Last Quarter
Feb 10
New
Feb 17
First Quarter

Hourly Weather History & Observations

Time (EST) Temp. Dew Point Humidity Pressure Visibility Wind Dir Wind Speed Gust Speed Precip Events Conditions
12:53 AM 71.1 °F 57.9 °F 63% 30.17 in 10.0 mi East 9.2 mph - N/A   Overcast
1:53 AM 71.1 °F 57.9 °F 63% 30.14 in 10.0 mi ENE 8.1 mph - N/A   Overcast
2:53 AM 71.1 °F 61.0 °F 70% 30.13 in 10.0 mi East 9.2 mph - N/A   Overcast
3:53 AM 70.0 °F 62.1 °F 76% 30.14 in 9.0 mi East 9.2 mph - 0.00 in Rain Light Rain
4:53 AM 66.9 °F 64.0 °F 90% 30.13 in 9.0 mi NNE 4.6 mph - 0.03 in Rain Light Rain
5:53 AM 66.0 °F 63.0 °F 90% 30.14 in 6.0 mi SSW 4.6 mph - 0.02 in Rain Light Rain
6:53 AM 64.0 °F 62.1 °F 93% 30.16 in 8.0 mi WSW 4.6 mph - 0.07 in Rain Light Rain
7:53 AM 63.0 °F 61.0 °F 93% 30.18 in 6.0 mi WSW 5.8 mph - 0.14 in Rain Light Rain
8:12 AM 62.6 °F 60.8 °F 94% 30.19 in 2.0 mi West 5.8 mph - 0.03 in Rain Rain
8:19 AM 62.6 °F 60.8 °F 94% 30.19 in 3.0 mi West 6.9 mph - 0.03 in Rain Light Rain
8:53 AM 63.0 °F 61.0 °F 93% 30.21 in 5.0 mi West 9.2 mph - 0.05 in Rain Light Rain
9:20 AM 62.6 °F 62.6 °F 100% 30.21 in 3.0 mi WNW 8.1 mph - 0.02 in Rain Light Rain
9:53 AM 64.0 °F 63.0 °F 96% 30.22 in 8.0 mi NW 6.9 mph - 0.02 in   Overcast
10:10 AM 64.4 °F 62.6 °F 94% 30.22 in 9.0 mi NNW 9.2 mph - N/A   Overcast
10:53 AM 64.9 °F 64.0 °F 97% 30.21 in 9.0 mi North 4.6 mph - 0.01 in   Overcast
11:12 AM 66.2 °F 64.4 °F 94% 30.20 in 10.0 mi North 6.9 mph - N/A   Overcast
11:53 AM 68.0 °F 66.0 °F 93% 30.19 in 10.0 mi North 8.1 mph - N/A   Overcast
12:10 PM 69.8 °F 66.2 °F 88% 30.18 in 7.0 mi NNE 5.8 mph - N/A   Overcast
12:53 PM 69.1 °F 66.0 °F 90% 30.15 in 10.0 mi NNE 9.2 mph - N/A   Overcast
1:26 PM 69.8 °F 66.2 °F 88% 30.13 in 10.0 mi NE 3.5 mph - N/A   Overcast
1:53 PM 71.1 °F 66.0 °F 84% 30.12 in 10.0 mi NNE 4.6 mph - N/A   Overcast
2:53 PM 72.0 °F 66.0 °F 81% 30.11 in 10.0 mi NNE 8.1 mph - N/A   Overcast
3:53 PM 72.0 °F 66.0 °F 81% 30.10 in 10.0 mi Calm Calm - N/A   Overcast
4:53 PM 72.0 °F 66.0 °F 81% 30.10 in 10.0 mi NNE 6.9 mph - N/A   Mostly Cloudy
5:53 PM 71.1 °F 66.0 °F 84% 30.11 in 10.0 mi NNE 5.8 mph - N/A   Mostly Cloudy
6:53 PM 70.0 °F 66.0 °F 87% 30.12 in 10.0 mi NNW 5.8 mph - N/A   Overcast
7:53 PM 70.0 °F 66.0 °F 87% 30.12 in 10.0 mi North 5.8 mph - N/A   Overcast
8:53 PM 69.1 °F 66.0 °F 90% 30.14 in 10.0 mi NNW 3.5 mph - N/A   Mostly Cloudy
9:53 PM 69.1 °F 66.0 °F 90% 30.13 in 10.0 mi NNW 3.5 mph - N/A   Mostly Cloudy
10:53 PM 66.9 °F 66.0 °F 97% 30.11 in 10.0 mi NNW 4.6 mph - N/A   Partly Cloudy
11:53 PM 66.9 °F 64.9 °F 93% 30.11 in 9.0 mi NW 4.6 mph - N/A   Partly Cloudy